Year,Month,Day,Hour,Minute,Value (Times are PST for temperature in C)
2016,06,26,00,00,12.70
2016,06,26,00,01,12.70
2016,06,26,00,02,12.70
2016,06,26,00,03,12.70
2016,06,26,00,04,12.70
2016,06,26,00,05,12.70
2016,06,26,00,06,12.70
2016,06,26,00,07,12.70
2016,06,26,00,08,12.70
2016,06,26,00,09,12.70
2016,06,26,00,10,12.60
2016,06,26,00,11,12.70
2016,06,26,00,12,12.70
2016,06,26,00,13,12.70
2016,06,26,00,14,12.60
2016,06,26,00,15,12.60
2016,06,26,00,16,12.60
2016,06,26,00,17,12.60
2016,06,26,00,18,12.60
2016,06,26,00,19,12.60
2016,06,26,00,20,12.60
2016,06,26,00,21,12.60
2016,06,26,00,22,12.50
2016,06,26,00,23,12.50
2016,06,26,00,24,12.50
2016,06,26,00,25,12.50
2016,06,26,00,26,12.50
2016,06,26,00,27,12.40
2016,06,26,00,28,12.40
2016,06,26,00,29,12.40
2016,06,26,00,30,12.40
2016,06,26,00,31,12.40
2016,06,26,00,32,12.40
2016,06,26,00,33,12.40
2016,06,26,00,34,12.40
2016,06,26,00,35,12.40
2016,06,26,00,36,12.40
2016,06,26,00,37,12.40
2016,06,26,00,38,12.40
2016,06,26,00,39,12.30
2016,06,26,00,40,12.30
2016,06,26,00,41,12.30
2016,06,26,00,42,12.30
2016,06,26,00,43,12.30
2016,06,26,00,44,12.30
2016,06,26,00,45,12.30
2016,06,26,00,46,12.30
2016,06,26,00,47,12.30
2016,06,26,00,48,12.30
2016,06,26,00,49,12.30
2016,06,26,00,50,12.30
2016,06,26,00,51,12.30
2016,06,26,00,52,12.30
2016,06,26,00,53,12.20
2016,06,26,00,54,12.20
2016,06,26,00,55,12.20
2016,06,26,00,56,12.20
2016,06,26,00,57,12.20
2016,06,26,00,58,12.20
2016,06,26,00,59,12.20
2016,06,26,01,00,12.20
2016,06,26,01,01,12.20
2016,06,26,01,02,12.20
2016,06,26,01,03,12.20
2016,06,26,01,04,12.20
2016,06,26,01,05,12.20
2016,06,26,01,06,12.10
2016,06,26,01,07,12.10
2016,06,26,01,08,12.10
2016,06,26,01,09,12.10
2016,06,26,01,10,12.10
2016,06,26,01,11,12.10
2016,06,26,01,12,12.10
2016,06,26,01,13,12.10
2016,06,26,01,14,12.10
2016,06,26,01,15,12.10
2016,06,26,01,16,12.10
2016,06,26,01,17,12.10
2016,06,26,01,18,12.10
2016,06,26,01,19,12.10
2016,06,26,01,20,12.00
2016,06,26,01,21,12.10
2016,06,26,01,22,12.00
2016,06,26,01,23,12.00
2016,06,26,01,24,12.10
2016,06,26,01,25,12.10
2016,06,26,01,26,12.10
2016,06,26,01,27,12.00
2016,06,26,01,28,12.00
2016,06,26,01,29,12.00
2016,06,26,01,30,12.00
2016,06,26,01,31,12.00
2016,06,26,01,32,11.90
2016,06,26,01,33,11.90
2016,06,26,01,34,11.90
2016,06,26,01,35,11.90
2016,06,26,01,36,11.90
2016,06,26,01,37,11.90
2016,06,26,01,38,11.90
2016,06,26,01,39,11.90
2016,06,26,01,40,11.80
2016,06,26,01,41,11.80
2016,06,26,01,42,11.80
2016,06,26,01,43,11.80
2016,06,26,01,44,11.80
2016,06,26,01,45,11.80
2016,06,26,01,46,11.80
2016,06,26,01,47,11.80
2016,06,26,01,48,11.80
2016,06,26,01,49,11.80
2016,06,26,01,50,11.80
2016,06,26,01,51,11.80
2016,06,26,01,52,11.80
2016,06,26,01,53,11.80
2016,06,26,01,54,11.80
2016,06,26,01,55,11.70
2016,06,26,01,56,11.70
2016,06,26,01,57,11.70
2016,06,26,01,58,11.70
2016,06,26,01,59,11.70
2016,06,26,02,00,11.70
2016,06,26,02,01,11.70
2016,06,26,02,02,11.70
2016,06,26,02,03,11.70
2016,06,26,02,04,11.70
2016,06,26,02,05,11.70
2016,06,26,02,06,11.70
2016,06,26,02,07,11.70
2016,06,26,02,08,11.70
2016,06,26,02,09,11.70
2016,06,26,02,10,11.70
2016,06,26,02,11,11.60
2016,06,26,02,12,11.60
2016,06,26,02,13,11.60
2016,06,26,02,14,11.60
2016,06,26,02,15,11.60
2016,06,26,02,16,11.50
2016,06,26,02,17,11.50
2016,06,26,02,18,11.50
2016,06,26,02,19,11.50
2016,06,26,02,20,11.50
2016,06,26,02,21,11.40
2016,06,26,02,22,11.40
2016,06,26,02,23,11.40
2016,06,26,02,24,11.40
2016,06,26,02,25,11.40
2016,06,26,02,26,11.50
2016,06,26,02,27,11.40
2016,06,26,02,28,11.40
2016,06,26,02,29,11.40
2016,06,26,02,30,11.40
2016,06,26,02,31,11.40
2016,06,26,02,32,11.40
2016,06,26,02,33,11.40
2016,06,26,02,34,11.40
2016,06,26,02,35,11.40
2016,06,26,02,36,11.40
2016,06,26,02,37,11.30
2016,06,26,02,38,11.30
2016,06,26,02,39,11.30
2016,06,26,02,40,11.30
2016,06,26,02,41,11.30
2016,06,26,02,42,11.20
2016,06,26,02,43,11.20
2016,06,26,02,44,11.20
2016,06,26,02,45,11.30
2016,06,26,02,46,11.30
2016,06,26,02,47,11.30
2016,06,26,02,48,11.30
2016,06,26,02,49,11.30
2016,06,26,02,50,11.30
2016,06,26,02,51,11.30
2016,06,26,02,52,11.30
2016,06,26,02,53,11.30
2016,06,26,02,54,11.30
2016,06,26,02,55,11.30
2016,06,26,02,56,11.30
2016,06,26,02,57,11.30
2016,06,26,02,58,11.30
2016,06,26,02,59,11.30
2016,06,26,03,00,11.30
2016,06,26,03,01,11.30
2016,06,26,03,02,11.30
2016,06,26,03,03,11.30
2016,06,26,03,04,11.30
2016,06,26,03,05,11.30
2016,06,26,03,06,11.30
2016,06,26,03,07,11.30
2016,06,26,03,08,11.30
2016,06,26,03,09,11.30
2016,06,26,03,10,11.30
2016,06,26,03,11,11.30
2016,06,26,03,12,11.30
2016,06,26,03,13,11.30
2016,06,26,03,14,11.30
2016,06,26,03,15,11.30
2016,06,26,03,16,11.30
2016,06,26,03,17,11.30
2016,06,26,03,18,11.30
2016,06,26,03,19,11.30
2016,06,26,03,20,11.30
2016,06,26,03,21,11.30
2016,06,26,03,22,11.30
2016,06,26,03,23,11.30
2016,06,26,03,24,11.30
2016,06,26,03,25,11.30
2016,06,26,03,26,11.30
2016,06,26,03,27,11.30
2016,06,26,03,28,11.30
2016,06,26,03,29,11.30
2016,06,26,03,30,11.20
2016,06,26,03,31,11.20
2016,06,26,03,32,11.20
2016,06,26,03,33,11.20
2016,06,26,03,34,11.20
2016,06,26,03,35,11.20
2016,06,26,03,36,11.20
2016,06,26,03,37,11.20
2016,06,26,03,38,11.20
2016,06,26,03,39,11.20
2016,06,26,03,40,11.20
2016,06,26,03,41,11.20
2016,06,26,03,42,11.20
2016,06,26,03,43,11.20
2016,06,26,03,44,11.20
2016,06,26,03,45,11.20
2016,06,26,03,46,11.10
2016,06,26,03,47,11.10
2016,06,26,03,48,11.10
2016,06,26,03,49,11.10
2016,06,26,03,50,11.10
2016,06,26,03,51,11.10
2016,06,26,03,52,11.10
2016,06,26,03,53,11.10
2016,06,26,03,54,11.10
2016,06,26,03,55,11.10
2016,06,26,03,56,11.10
2016,06,26,03,57,11.10
2016,06,26,03,58,11.10
2016,06,26,03,59,11.10
2016,06,26,04,00,11.00
2016,06,26,04,01,11.00
2016,06,26,04,02,11.00
2016,06,26,04,03,10.90
2016,06,26,04,04,10.90
2016,06,26,04,05,10.90
2016,06,26,04,06,10.90
2016,06,26,04,07,10.90
2016,06,26,04,08,10.90
2016,06,26,04,09,10.80
2016,06,26,04,10,10.80
2016,06,26,04,11,10.80
2016,06,26,04,12,10.80
2016,06,26,04,13,10.80
2016,06,26,04,14,10.80
2016,06,26,04,15,10.80
2016,06,26,04,16,10.80
2016,06,26,04,17,10.70
2016,06,26,04,18,10.70
2016,06,26,04,19,10.70
2016,06,26,04,20,10.70
2016,06,26,04,21,10.70
2016,06,26,04,22,10.70
2016,06,26,04,23,10.70
2016,06,26,04,24,10.70
2016,06,26,04,25,10.70
2016,06,26,04,26,10.70
2016,06,26,04,27,10.60
2016,06,26,04,28,10.60
2016,06,26,04,29,10.60
2016,06,26,04,30,10.60
2016,06,26,04,31,10.60
2016,06,26,04,32,10.60
2016,06,26,04,33,10.60
2016,06,26,04,34,10.60
2016,06,26,04,35,10.60
2016,06,26,04,36,10.60
2016,06,26,04,37,10.60
2016,06,26,04,38,10.60
2016,06,26,04,39,10.60
2016,06,26,04,40,10.60
2016,06,26,04,41,10.60
2016,06,26,04,42,10.60
2016,06,26,04,43,10.60
2016,06,26,04,44,10.60
2016,06,26,04,45,10.60
2016,06,26,04,46,10.70
2016,06,26,04,47,10.70
2016,06,26,04,48,10.80
2016,06,26,04,49,10.90
2016,06,26,04,50,10.90
2016,06,26,04,51,10.90
2016,06,26,04,52,10.90
2016,06,26,04,53,11.00
2016,06,26,04,54,11.00
2016,06,26,04,55,11.00
2016,06,26,04,56,11.00
2016,06,26,04,57,11.00
2016,06,26,04,58,11.00
2016,06,26,04,59,11.00
2016,06,26,05,00,11.00
2016,06,26,05,01,10.90
2016,06,26,05,02,10.90
2016,06,26,05,03,10.90
2016,06,26,05,04,10.90
2016,06,26,05,05,10.90
2016,06,26,05,06,10.90
2016,06,26,05,07,10.90
2016,06,26,05,08,10.90
2016,06,26,05,09,10.80
2016,06,26,05,10,10.80
2016,06,26,05,11,10.80
2016,06,26,05,12,10.80
2016,06,26,05,13,10.80
2016,06,26,05,14,10.80
2016,06,26,05,15,10.80
2016,06,26,05,16,10.80
2016,06,26,05,17,10.70
2016,06,26,05,18,10.70
2016,06,26,05,19,10.70
2016,06,26,05,20,10.70
2016,06,26,05,21,10.70
2016,06,26,05,22,10.70
2016,06,26,05,23,10.70
2016,06,26,05,24,10.60
2016,06,26,05,25,10.60
2016,06,26,05,26,10.60
2016,06,26,05,27,10.60
2016,06,26,05,28,10.60
2016,06,26,05,29,10.60
2016,06,26,05,30,10.60
2016,06,26,05,31,10.60
2016,06,26,05,32,10.60
2016,06,26,05,33,10.60
2016,06,26,05,34,10.60
2016,06,26,05,35,10.60
2016,06,26,05,36,10.60
2016,06,26,05,37,10.60
2016,06,26,05,38,10.60
2016,06,26,05,39,10.60
2016,06,26,05,40,10.60
2016,06,26,05,41,10.60
2016,06,26,05,42,10.60
2016,06,26,05,43,10.60
2016,06,26,05,44,10.50
2016,06,26,05,45,10.50
2016,06,26,05,46,10.50
2016,06,26,05,47,10.50
2016,06,26,05,48,10.40
2016,06,26,05,49,10.40
2016,06,26,05,50,10.50
2016,06,26,05,51,10.50
2016,06,26,05,52,10.40
2016,06,26,05,53,10.50
2016,06,26,05,54,10.50
2016,06,26,05,55,10.50
2016,06,26,05,56,10.40
2016,06,26,05,57,10.40
2016,06,26,05,58,10.40
2016,06,26,05,59,10.40
2016,06,26,06,00,10.40
2016,06,26,06,01,10.40
2016,06,26,06,02,10.40
2016,06,26,06,03,10.40
2016,06,26,06,04,10.40
2016,06,26,06,05,10.40
2016,06,26,06,06,10.40
2016,06,26,06,07,10.40
2016,06,26,06,08,10.40
2016,06,26,06,09,10.40
2016,06,26,06,10,10.30
2016,06,26,06,11,10.30
2016,06,26,06,12,10.30
2016,06,26,06,13,10.30
2016,06,26,06,14,10.30
2016,06,26,06,15,10.30
2016,06,26,06,16,10.40
2016,06,26,06,17,10.40
2016,06,26,06,18,10.30
2016,06,26,06,19,10.30
2016,06,26,06,20,10.30
2016,06,26,06,21,10.30
2016,06,26,06,22,10.30
2016,06,26,06,23,10.30
2016,06,26,06,24,10.30
2016,06,26,06,25,10.30
2016,06,26,06,26,10.30
2016,06,26,06,27,10.30
2016,06,26,06,28,10.30
2016,06,26,06,29,10.30
2016,06,26,06,30,10.30
2016,06,26,06,31,10.30
2016,06,26,06,32,10.30
2016,06,26,06,33,10.30
2016,06,26,06,34,10.30
2016,06,26,06,35,10.30
2016,06,26,06,36,10.30
2016,06,26,06,37,10.30
2016,06,26,06,38,10.30
2016,06,26,06,39,10.30
2016,06,26,06,40,10.30
2016,06,26,06,41,10.30
2016,06,26,06,42,10.30
2016,06,26,06,43,10.30
2016,06,26,06,44,10.30
2016,06,26,06,45,10.30
2016,06,26,06,46,10.30
2016,06,26,06,47,10.30
2016,06,26,06,48,10.30
2016,06,26,06,49,10.30
2016,06,26,06,50,10.30
2016,06,26,06,51,10.40
2016,06,26,06,52,10.40
2016,06,26,06,53,10.50
2016,06,26,06,54,10.50
2016,06,26,06,55,10.50
2016,06,26,06,56,10.50
2016,06,26,06,57,10.50
2016,06,26,06,58,10.50
2016,06,26,06,59,10.60
2016,06,26,07,00,10.60
2016,06,26,07,01,10.60
2016,06,26,07,02,10.60
2016,06,26,07,03,10.60
2016,06,26,07,04,10.70
2016,06,26,07,05,10.70
2016,06,26,07,06,10.80
2016,06,26,07,07,10.90
2016,06,26,07,08,11.00
2016,06,26,07,09,11.10
2016,06,26,07,10,11.20
2016,06,26,07,11,11.20
2016,06,26,07,12,11.30
2016,06,26,07,13,11.40
2016,06,26,07,14,11.50
2016,06,26,07,15,11.60
2016,06,26,07,16,11.70
2016,06,26,07,17,11.70
2016,06,26,07,18,11.80
2016,06,26,07,19,11.80
2016,06,26,07,20,11.90
2016,06,26,07,21,11.90
2016,06,26,07,22,12.00
2016,06,26,07,23,12.10
2016,06,26,07,24,12.20
2016,06,26,07,25,12.30
2016,06,26,07,26,12.40
2016,06,26,07,27,12.50
2016,06,26,07,28,12.60
2016,06,26,07,29,12.70
2016,06,26,07,30,12.80
2016,06,26,07,31,12.80
2016,06,26,07,32,12.90
2016,06,26,07,33,13.00
2016,06,26,07,34,13.10
2016,06,26,07,35,13.20
2016,06,26,07,36,13.30
2016,06,26,07,37,13.50
2016,06,26,07,38,13.60
2016,06,26,07,39,13.70
2016,06,26,07,40,13.80
2016,06,26,07,41,13.80
2016,06,26,07,42,13.90
2016,06,26,07,43,13.90
2016,06,26,07,44,13.90
2016,06,26,07,45,13.90
2016,06,26,07,46,13.90
2016,06,26,07,47,13.90
2016,06,26,07,48,13.90
2016,06,26,07,49,13.90
2016,06,26,07,50,13.90
2016,06,26,07,51,13.90
2016,06,26,07,52,13.90
2016,06,26,07,53,14.00
2016,06,26,07,54,14.10
2016,06,26,07,55,14.20
2016,06,26,07,56,14.30
2016,06,26,07,57,14.40
2016,06,26,07,58,14.50
2016,06,26,07,59,14.60
2016,06,26,08,00,14.70
2016,06,26,08,01,14.70
2016,06,26,08,02,14.70
2016,06,26,08,03,14.80
2016,06,26,08,04,14.90
2016,06,26,08,05,14.90
2016,06,26,08,06,15.00
2016,06,26,08,07,15.10
2016,06,26,08,08,15.20
2016,06,26,08,09,15.20
2016,06,26,08,10,15.30
2016,06,26,08,11,15.30
2016,06,26,08,12,15.30
2016,06,26,08,13,15.30
2016,06,26,08,14,15.30
2016,06,26,08,15,15.30
2016,06,26,08,16,15.40
2016,06,26,08,17,15.40
2016,06,26,08,18,15.50
2016,06,26,08,19,15.60
2016,06,26,08,20,15.70
2016,06,26,08,21,15.70
2016,06,26,08,22,15.80
2016,06,26,08,23,15.90
2016,06,26,08,24,16.00
2016,06,26,08,25,16.20
2016,06,26,08,26,16.20
2016,06,26,08,27,16.20
2016,06,26,08,28,16.20
2016,06,26,08,29,16.10
2016,06,26,08,30,16.10
2016,06,26,08,31,16.10
2016,06,26,08,32,16.10
2016,06,26,08,33,16.00
2016,06,26,08,34,16.00
2016,06,26,08,35,16.00
2016,06,26,08,36,16.00
2016,06,26,08,37,15.90
2016,06,26,08,38,15.90
2016,06,26,08,39,15.80
2016,06,26,08,40,15.80
2016,06,26,08,41,15.80
2016,06,26,08,42,15.80
2016,06,26,08,43,15.90
2016,06,26,08,44,15.90
2016,06,26,08,45,15.90
2016,06,26,08,46,16.00
2016,06,26,08,47,16.00
2016,06,26,08,48,16.00
2016,06,26,08,49,16.00
2016,06,26,08,50,15.90
2016,06,26,08,51,15.90
2016,06,26,08,52,15.90
2016,06,26,08,53,15.90
2016,06,26,08,54,15.90
2016,06,26,08,55,16.00
2016,06,26,08,56,16.10
2016,06,26,08,57,16.10
2016,06,26,08,58,16.20
2016,06,26,08,59,16.30
2016,06,26,09,00,16.30
2016,06,26,09,01,16.40
2016,06,26,09,02,16.50
2016,06,26,09,03,16.60
2016,06,26,09,04,16.70
2016,06,26,09,05,16.80
2016,06,26,09,06,16.90
2016,06,26,09,07,17.00
2016,06,26,09,08,17.20
2016,06,26,09,09,17.40
2016,06,26,09,10,17.60
2016,06,26,09,11,17.70
2016,06,26,09,12,17.70
2016,06,26,09,13,17.70
2016,06,26,09,14,17.60
2016,06,26,09,15,17.50
2016,06,26,09,16,17.50
2016,06,26,09,17,17.40
2016,06,26,09,18,17.30
2016,06,26,09,19,17.40
2016,06,26,09,20,17.50
2016,06,26,09,21,17.50
2016,06,26,09,22,17.60
2016,06,26,09,23,17.60
2016,06,26,09,24,17.60
2016,06,26,09,25,17.70
2016,06,26,09,26,17.70
2016,06,26,09,27,17.80
2016,06,26,09,28,17.80
2016,06,26,09,29,17.90
2016,06,26,09,30,18.00
2016,06,26,09,31,18.10
2016,06,26,09,32,18.20
2016,06,26,09,33,18.30
2016,06,26,09,34,18.40
2016,06,26,09,35,18.50
2016,06,26,09,36,18.60
2016,06,26,09,37,18.70
2016,06,26,09,38,18.90
2016,06,26,09,39,19.00
2016,06,26,09,40,19.20
2016,06,26,09,41,19.30
2016,06,26,09,42,19.40
2016,06,26,09,43,19.60
2016,06,26,09,44,19.70
2016,06,26,09,45,19.70
2016,06,26,09,46,19.80
2016,06,26,09,47,19.80
2016,06,26,09,48,19.80
2016,06,26,09,49,19.80
2016,06,26,09,50,19.80
2016,06,26,09,51,19.90
2016,06,26,09,52,20.00
2016,06,26,09,53,20.10
2016,06,26,09,54,20.20
2016,06,26,09,55,20.30
2016,06,26,09,56,20.30
2016,06,26,09,57,20.30
2016,06,26,09,58,20.20
2016,06,26,09,59,20.20
2016,06,26,10,00,20.20
2016,06,26,10,01,20.20
2016,06,26,10,02,20.20
2016,06,26,10,03,20.20
2016,06,26,10,04,20.20
2016,06,26,10,05,20.20
2016,06,26,10,06,20.20
2016,06,26,10,07,20.10
2016,06,26,10,08,20.10
2016,06,26,10,09,20.10
2016,06,26,10,10,20.10
2016,06,26,10,11,20.10
2016,06,26,10,12,20.10
2016,06,26,10,13,20.10
2016,06,26,10,14,20.20
2016,06,26,10,15,20.20
2016,06,26,10,16,20.20
2016,06,26,10,17,20.30
2016,06,26,10,18,20.30
2016,06,26,10,19,20.30
2016,06,26,10,20,20.40
2016,06,26,10,21,20.40
2016,06,26,10,22,20.50
2016,06,26,10,23,20.60
2016,06,26,10,24,20.70
2016,06,26,10,25,20.70
2016,06,26,10,26,20.80
2016,06,26,10,27,20.80
2016,06,26,10,28,20.90
2016,06,26,10,29,20.90
2016,06,26,10,30,21.00
2016,06,26,10,31,21.10
2016,06,26,10,32,21.10
2016,06,26,10,33,21.20
2016,06,26,10,34,21.20
2016,06,26,10,35,21.30
2016,06,26,10,36,21.30
2016,06,26,10,37,21.40
2016,06,26,10,38,21.50
2016,06,26,10,39,21.50
2016,06,26,10,40,21.60
2016,06,26,10,41,21.60
2016,06,26,10,42,21.60
2016,06,26,10,43,21.50
2016,06,26,10,44,21.40
2016,06,26,10,45,21.30
2016,06,26,10,46,21.30
2016,06,26,10,47,21.30
2016,06,26,10,48,21.40
2016,06,26,10,49,21.40
2016,06,26,10,50,21.50
2016,06,26,10,51,21.60
2016,06,26,10,52,21.60
2016,06,26,10,53,21.50
2016,06,26,10,54,21.50
2016,06,26,10,55,21.40
2016,06,26,10,56,21.30
2016,06,26,10,57,21.30
2016,06,26,10,58,21.30
2016,06,26,10,59,21.30
2016,06,26,11,00,21.30
2016,06,26,11,01,21.30
2016,06,26,11,02,21.30
2016,06,26,11,03,21.30
2016,06,26,11,04,21.30
2016,06,26,11,05,21.20
2016,06,26,11,06,21.20
2016,06,26,11,07,21.20
2016,06,26,11,08,21.20
2016,06,26,11,09,21.20
2016,06,26,11,10,21.30
2016,06,26,11,11,21.30
2016,06,26,11,12,21.30
2016,06,26,11,13,21.30
2016,06,26,11,14,21.30
2016,06,26,11,15,21.30
2016,06,26,11,16,21.40
2016,06,26,11,17,21.40
2016,06,26,11,18,21.40
2016,06,26,11,19,21.40
2016,06,26,11,20,21.40
2016,06,26,11,21,21.40
2016,06,26,11,22,21.30
2016,06,26,11,23,21.20
2016,06,26,11,24,21.20
2016,06,26,11,25,21.20
2016,06,26,11,26,21.20
2016,06,26,11,27,21.20
2016,06,26,11,28,21.20
2016,06,26,11,29,21.20
2016,06,26,11,30,21.30
2016,06,26,11,31,21.20
2016,06,26,11,32,21.20
2016,06,26,11,33,21.20
2016,06,26,11,34,21.20
2016,06,26,11,35,21.20
2016,06,26,11,36,21.10
2016,06,26,11,37,21.00
2016,06,26,11,38,21.00
2016,06,26,11,39,21.10
2016,06,26,11,40,21.10
2016,06,26,11,41,21.00
2016,06,26,11,42,21.00
2016,06,26,11,43,21.00
2016,06,26,11,44,21.10
2016,06,26,11,45,21.00
2016,06,26,11,46,21.00
2016,06,26,11,47,21.00
2016,06,26,11,48,21.00
2016,06,26,11,49,21.10
2016,06,26,11,50,21.10
2016,06,26,11,51,21.20
2016,06,26,11,52,21.10
2016,06,26,11,53,21.10
2016,06,26,11,54,21.00
2016,06,26,11,55,20.90
2016,06,26,11,56,20.90
2016,06,26,11,57,20.90
2016,06,26,11,58,20.90
2016,06,26,11,59,20.90
2016,06,26,12,00,20.90
2016,06,26,12,01,20.90
2016,06,26,12,02,21.00
2016,06,26,12,03,21.10
2016,06,26,12,04,21.20
2016,06,26,12,05,21.20
2016,06,26,12,06,21.20
2016,06,26,12,07,21.20
2016,06,26,12,08,21.20
2016,06,26,12,09,21.10
2016,06,26,12,10,21.10
2016,06,26,12,11,21.00
2016,06,26,12,12,21.00
2016,06,26,12,13,20.90
2016,06,26,12,14,20.90
2016,06,26,12,15,20.90
2016,06,26,12,16,20.80
2016,06,26,12,17,20.80
2016,06,26,12,18,20.80
2016,06,26,12,19,20.80
2016,06,26,12,20,20.70
2016,06,26,12,21,20.70
2016,06,26,12,22,20.80
2016,06,26,12,23,20.80
2016,06,26,12,24,20.90
2016,06,26,12,25,21.00
2016,06,26,12,26,21.00
2016,06,26,12,27,21.10
2016,06,26,12,28,21.00
2016,06,26,12,29,21.00
2016,06,26,12,30,21.00
2016,06,26,12,31,20.90
2016,06,26,12,32,20.90
2016,06,26,12,33,20.80
2016,06,26,12,34,20.90
2016,06,26,12,35,21.00
2016,06,26,12,36,21.00
2016,06,26,12,37,21.10
2016,06,26,12,38,21.30
2016,06,26,12,39,21.30
2016,06,26,12,40,21.30
2016,06,26,12,41,21.40
2016,06,26,12,42,21.60
2016,06,26,12,43,21.70
2016,06,26,12,44,21.70
2016,06,26,12,45,21.60
2016,06,26,12,46,21.60
2016,06,26,12,47,21.60
2016,06,26,12,48,21.60
2016,06,26,12,49,21.60
2016,06,26,12,50,21.60
2016,06,26,12,51,21.60
2016,06,26,12,52,21.50
2016,06,26,12,53,21.50
2016,06,26,12,54,21.50
2016,06,26,12,55,21.50
2016,06,26,12,56,21.60
2016,06,26,12,57,21.60
2016,06,26,12,58,21.60
2016,06,26,12,59,21.60
2016,06,26,13,00,21.60
2016,06,26,13,01,21.60
2016,06,26,13,02,21.50
2016,06,26,13,03,21.50
2016,06,26,13,04,21.50
2016,06,26,13,05,21.50
2016,06,26,13,06,21.50
2016,06,26,13,07,21.50
2016,06,26,13,08,21.60
2016,06,26,13,09,21.60
2016,06,26,13,10,21.50
2016,06,26,13,11,21.40
2016,06,26,13,12,21.40
2016,06,26,13,13,21.30
2016,06,26,13,14,21.40
2016,06,26,13,15,21.40
2016,06,26,13,16,21.40
2016,06,26,13,17,21.50
2016,06,26,13,18,21.50
2016,06,26,13,19,21.50
2016,06,26,13,20,21.50
2016,06,26,13,21,21.60
2016,06,26,13,22,21.60
2016,06,26,13,23,21.70
2016,06,26,13,24,21.70
2016,06,26,13,25,21.70
2016,06,26,13,26,21.70
2016,06,26,13,27,21.70
2016,06,26,13,28,21.80
2016,06,26,13,29,21.80
2016,06,26,13,30,21.80
2016,06,26,13,31,21.90
2016,06,26,13,32,21.90
2016,06,26,13,33,22.00
2016,06,26,13,34,22.00
2016,06,26,13,35,22.10
2016,06,26,13,36,22.10
2016,06,26,13,37,22.20
2016,06,26,13,38,22.30
2016,06,26,13,39,22.40
2016,06,26,13,40,22.50
2016,06,26,13,41,22.50
2016,06,26,13,42,22.60
2016,06,26,13,43,22.50
2016,06,26,13,44,22.50
2016,06,26,13,45,22.50
2016,06,26,13,46,22.50
2016,06,26,13,47,22.50
2016,06,26,13,48,22.60
2016,06,26,13,49,22.50
2016,06,26,13,50,22.50
2016,06,26,13,51,22.40
2016,06,26,13,52,22.50
2016,06,26,13,53,22.50
2016,06,26,13,54,22.50
2016,06,26,13,55,22.50
2016,06,26,13,56,22.60
2016,06,26,13,57,22.60
2016,06,26,13,58,22.60
2016,06,26,13,59,22.50
2016,06,26,14,00,22.50
2016,06,26,14,01,22.40
2016,06,26,14,02,22.40
2016,06,26,14,03,22.30
2016,06,26,14,04,22.40
2016,06,26,14,05,22.40
2016,06,26,14,06,22.40
2016,06,26,14,07,22.30
2016,06,26,14,08,22.30
2016,06,26,14,09,22.40
2016,06,26,14,10,22.40
2016,06,26,14,11,22.40
2016,06,26,14,12,22.30
2016,06,26,14,13,22.30
2016,06,26,14,14,22.30
2016,06,26,14,15,22.30
2016,06,26,14,16,22.20
2016,06,26,14,17,22.20
2016,06,26,14,18,22.20
2016,06,26,14,19,22.20
2016,06,26,14,20,22.10
2016,06,26,14,21,22.00
2016,06,26,14,22,21.90
2016,06,26,14,23,21.90
2016,06,26,14,24,21.90
2016,06,26,14,25,21.90
2016,06,26,14,26,21.70
2016,06,26,14,27,21.50
2016,06,26,14,28,21.50
2016,06,26,14,29,21.40
2016,06,26,14,30,21.40
2016,06,26,14,31,21.40
2016,06,26,14,32,21.40
2016,06,26,14,33,21.40
2016,06,26,14,34,21.40
2016,06,26,14,35,21.40
2016,06,26,14,36,21.30
2016,06,26,14,37,21.30
2016,06,26,14,38,21.30
2016,06,26,14,39,21.30
2016,06,26,14,40,21.30
2016,06,26,14,41,21.30
2016,06,26,14,42,21.40
2016,06,26,14,43,21.30
2016,06,26,14,44,21.30
2016,06,26,14,45,21.30
2016,06,26,14,46,21.20
2016,06,26,14,47,21.30
2016,06,26,14,48,21.40
2016,06,26,14,49,21.50
2016,06,26,14,50,21.70
2016,06,26,14,51,21.80
2016,06,26,14,52,21.80
2016,06,26,14,53,21.80
2016,06,26,14,54,21.80
2016,06,26,14,55,21.80
2016,06,26,14,56,21.80
2016,06,26,14,57,21.80
2016,06,26,14,58,21.90
2016,06,26,14,59,21.90
2016,06,26,15,00,21.90
2016,06,26,15,01,21.90
2016,06,26,15,02,22.00
2016,06,26,15,03,22.00
2016,06,26,15,04,22.10
2016,06,26,15,05,22.10
2016,06,26,15,06,22.20
2016,06,26,15,07,22.20
2016,06,26,15,08,22.30
2016,06,26,15,09,22.30
2016,06,26,15,10,22.30
2016,06,26,15,11,22.30
2016,06,26,15,12,22.30
2016,06,26,15,13,22.30
2016,06,26,15,14,22.30
2016,06,26,15,15,22.30
2016,06,26,15,16,22.30
2016,06,26,15,17,22.30
2016,06,26,15,18,22.30
2016,06,26,15,19,22.30
2016,06,26,15,20,22.30
2016,06,26,15,21,22.30
2016,06,26,15,22,22.20
2016,06,26,15,23,22.10
2016,06,26,15,24,22.10
2016,06,26,15,25,22.10
2016,06,26,15,26,22.10
2016,06,26,15,27,22.00
2016,06,26,15,28,22.00
2016,06,26,15,29,22.10
2016,06,26,15,30,22.10
2016,06,26,15,31,22.20
2016,06,26,15,32,22.20
2016,06,26,15,33,22.30
2016,06,26,15,34,22.30
2016,06,26,15,35,22.40
2016,06,26,15,36,22.50
2016,06,26,15,37,22.50
2016,06,26,15,38,22.50
2016,06,26,15,39,22.50
2016,06,26,15,40,22.50
2016,06,26,15,41,22.60
2016,06,26,15,42,22.60
2016,06,26,15,43,22.60
2016,06,26,15,44,22.60
2016,06,26,15,45,22.50
2016,06,26,15,46,22.50
2016,06,26,15,47,22.50
2016,06,26,15,48,22.60
2016,06,26,15,49,22.60
2016,06,26,15,50,22.60
2016,06,26,15,51,22.70
2016,06,26,15,52,22.70
2016,06,26,15,53,22.80
2016,06,26,15,54,22.70
2016,06,26,15,55,22.60
2016,06,26,15,56,22.60
2016,06,26,15,57,22.60
2016,06,26,15,58,22.70
2016,06,26,15,59,22.80
2016,06,26,16,00,22.80
2016,06,26,16,01,22.80
2016,06,26,16,02,22.80
2016,06,26,16,03,22.70
2016,06,26,16,04,22.70
2016,06,26,16,05,22.70
2016,06,26,16,06,22.70
2016,06,26,16,07,22.70
2016,06,26,16,08,22.70
2016,06,26,16,09,22.70
2016,06,26,16,10,22.70
2016,06,26,16,11,22.50
2016,06,26,16,12,22.50
2016,06,26,16,13,22.30
2016,06,26,16,14,22.20
2016,06,26,16,15,22.10
2016,06,26,16,16,22.00
2016,06,26,16,17,21.90
2016,06,26,16,18,21.90
2016,06,26,16,19,21.90
2016,06,26,16,20,22.00
2016,06,26,16,21,22.00
2016,06,26,16,22,22.10
2016,06,26,16,23,22.20
2016,06,26,16,24,22.20
2016,06,26,16,25,22.30
2016,06,26,16,26,22.30
2016,06,26,16,27,22.30
2016,06,26,16,28,22.20
2016,06,26,16,29,22.20
2016,06,26,16,30,22.20
2016,06,26,16,31,22.10
2016,06,26,16,32,22.10
2016,06,26,16,33,22.20
2016,06,26,16,34,22.20
2016,06,26,16,35,22.20
2016,06,26,16,36,22.20
2016,06,26,16,37,22.20
2016,06,26,16,38,22.20
2016,06,26,16,39,22.10
2016,06,26,16,40,22.10
2016,06,26,16,41,22.00
2016,06,26,16,42,22.00
2016,06,26,16,43,22.00
2016,06,26,16,44,22.10
2016,06,26,16,45,22.10
2016,06,26,16,46,22.20
2016,06,26,16,47,22.20
2016,06,26,16,48,22.30
2016,06,26,16,49,22.30
2016,06,26,16,50,22.20
2016,06,26,16,51,22.20
2016,06,26,16,52,22.10
2016,06,26,16,53,22.10
2016,06,26,16,54,22.10
2016,06,26,16,55,22.10
2016,06,26,16,56,22.20
2016,06,26,16,57,22.20
2016,06,26,16,58,22.20
2016,06,26,16,59,22.20
2016,06,26,17,00,22.20
2016,06,26,17,01,22.20
2016,06,26,17,02,22.20
2016,06,26,17,03,22.40
2016,06,26,17,04,22.60
2016,06,26,17,05,22.60
2016,06,26,17,06,22.60
2016,06,26,17,07,22.60
2016,06,26,17,08,22.70
2016,06,26,17,09,22.70
2016,06,26,17,10,22.80
2016,06,26,17,11,22.80
2016,06,26,17,12,22.80
2016,06,26,17,13,22.80
2016,06,26,17,14,22.80
2016,06,26,17,15,22.80
2016,06,26,17,16,22.70
2016,06,26,17,17,22.70
2016,06,26,17,18,22.70
2016,06,26,17,19,22.70